WetterOnline ( https://www.wetteronline.at )

Wetter aktuell Berchtesgaden

Aktuelles Wetter: Salzburg Flughafen (450m)

6-stündlich | Neueste Meldungen
Ortszeit Temperatur Wetter
Fr, 12.08. 14:00 23.4° C leicht bewölkt
Fr, 12.08. 8:00 14.3° C fast wolkenlos
Fr, 12.08. 2:00 14.3° C fast wolkenlos
Do, 11.08. 20:00 24.1° C leicht bewölkt
Do, 11.08. 14:00 25.5° C fast wolkenlos
Do, 11.08. 8:00 14.4° C leicht bewölkt
Do, 11.08. 2:00 14.5° C fast wolkenlos
Mi, 10.08. 20:00 23.7° C fast wolkenlos
Ortszeit Temperatur Wetter
Fr, 12.08. 14:00 23.4° C leicht bewölkt
Fr, 12.08. 13:00 23.0° C leicht bewölkt
Fr, 12.08. 12:00 22.3° C fast wolkenlos
Fr, 12.08. 11:00 20.9° C fast wolkenlos
Fr, 12.08. 10:00 18.8° C fast wolkenlos
Fr, 12.08. 9:00 16.6° C fast wolkenlos
Fr, 12.08. 8:00 14.3° C fast wolkenlos
Ortszeit Relative Feuchte Sichtweite
Fr, 12.08. 14:00 42% 35 km
Fr, 12.08. 8:00 75% 40 km
Fr, 12.08. 2:00 74% 50 km
Do, 11.08. 20:00 38% 65 km
Do, 11.08. 14:00 41% 50 km
Do, 11.08. 8:00 84% 50 km
Do, 11.08. 2:00 81% 55 km
Mi, 10.08. 20:00 40% 60 km
Ortszeit Relative Feuchte Sichtweite
Fr, 12.08. 14:00 42% 35 km
Fr, 12.08. 13:00 43% 55 km
Fr, 12.08. 12:00 48% 60 km
Fr, 12.08. 11:00 51% 50 km
Fr, 12.08. 10:00 58% 50 km
Fr, 12.08. 9:00 66% 35 km
Fr, 12.08. 8:00 75% 40 km
Ortszeit Niederschlagsmenge Niederschlagsart
Fr, 12.08. 14:00 keine Meldung -
Fr, 12.08. 8:00 0.2 l/m2 in 12 Std. -
Fr, 12.08. 2:00 keine Meldung -
Do, 11.08. 20:00 keine Meldung -
Do, 11.08. 14:00 keine Meldung -
Do, 11.08. 8:00 0.2 l/m2 in 12 Std. -
Do, 11.08. 2:00 keine Meldung -
Mi, 10.08. 20:00 keine Meldung -
Ortszeit Niederschlagsmenge Niederschlagsart
Fr, 12.08. 14:00 0.0 l/m2 in 1 Std. -
Fr, 12.08. 13:00 0.0 l/m2 in 1 Std. -
Fr, 12.08. 12:00 0.0 l/m2 in 1 Std. -
Fr, 12.08. 11:00 0.0 l/m2 in 1 Std. -
Fr, 12.08. 10:00 0.0 l/m2 in 1 Std. -
Fr, 12.08. 9:00 0.0 l/m2 in 1 Std. -
Fr, 12.08. 8:00 keine Meldung -
Ortszeit Stärke Spitze Richtung
km/h Bft. km/h Grad Sektor
Fr, 12.08. 14:00 18 3 - 40° NO
Fr, 12.08. 8:00 4 1 - - -
Fr, 12.08. 2:00 7 2 - - -
Do, 11.08. 20:00 14 3 - 40° NO
Do, 11.08. 14:00 18 3 - 40° NO
Do, 11.08. 8:00 7 2 - - -
Do, 11.08. 2:00 4 1 - - -
Mi, 10.08. 20:00 18 3 - 50° NO
Ortszeit Stärke Spitze Richtung
km/h Bft. km/h Grad Sektor
Fr, 12.08. 14:00 18 3 - 40° NO
Fr, 12.08. 13:00 22 4 - 20° N
Fr, 12.08. 12:00 18 3 - 10° N
Fr, 12.08. 11:00 11 2 - - -
Fr, 12.08. 10:00 11 2 - - -
Fr, 12.08. 9:00 4 1 - - -
Fr, 12.08. 8:00 4 1 - - -
Ortszeit Untergrenze Bedeckung Gattung
total tief tief mittel hoch
Fr, 12.08. 14:00 1800 m 2/8 1/8 Cu - -
Fr, 12.08. 8:00 2100 m 1/8 1/8 - - -
Fr, 12.08. 2:00 6300 m 1/8 1/8 - - -
Do, 11.08. 20:00 4800 m 4/8 1/8 - Ac Ci
Do, 11.08. 14:00 1800 m 1/8 1/8 Cu - -
Do, 11.08. 8:00 9000 m 3/8 0/8 - - -
Do, 11.08. 2:00 2100 m 1/8 1/8 - - -
Mi, 10.08. 20:00 9000 m 1/8 0/8 - - Ci
Ortszeit Bedeckungsgrad in Achtel und Wolkenuntergrenze
Fr, 12.08. 14:00 1(1800m)
Fr, 12.08. 13:00 1(1800m) 1(1800m)
Fr, 12.08. 12:00 1(1800m)
Fr, 12.08. 11:00 1(1800m)
Fr, 12.08. 10:00 1(1800m)
Fr, 12.08. 9:00 1(2100m)
Fr, 12.08. 8:00 1(2100m)
Ortszeit Luftdruck NN (hPa) Tendenz (hPa in 3 Std.)
Fr, 12.08. 14:00 1016 - 1,0
Fr, 12.08. 8:00 1019 + 0,3
Fr, 12.08. 2:00 1019 - 0,2
Do, 11.08. 20:00 1017 - 0,6
Do, 11.08. 14:00 1018 - 1,0
Do, 11.08. 8:00 1021 + 0,1
Do, 11.08. 2:00 1022 - 0,3
Mi, 10.08. 20:00 1020 - 0,6
Ortszeit Luftdruck NN (hPa) Tendenz (hPa in 3 Std.)
Fr, 12.08. 14:00 1016 - 1,0
Fr, 12.08. 13:00 1016 - 0,7
Fr, 12.08. 12:00 1017 - 0,5
Fr, 12.08. 11:00 1018 0,0
Fr, 12.08. 10:00 1018 + 0,3
Fr, 12.08. 9:00 1019 + 0,7
Fr, 12.08. 8:00 1019 + 0,3
Ortszeit Schneehöhe (cm)
Fr, 12.08. 14:00 -
Fr, 12.08. 8:00 -
Fr, 12.08. 2:00 -
Do, 11.08. 20:00 -
Do, 11.08. 14:00 -
Do, 11.08. 8:00 -
Do, 11.08. 2:00 -
Mi, 10.08. 20:00 -
Ortszeit Schneehöhe (cm)
Fr, 12.08. 14:00 -
Fr, 12.08. 13:00 -
Fr, 12.08. 12:00 -
Fr, 12.08. 11:00 -
Fr, 12.08. 10:00 -
Fr, 12.08. 9:00 -
Fr, 12.08. 8:00 -
Link zu dieser Seite / Seite empfehlen

Das Wetter in ...